sat.trackr.live / text

‹ back to catalog

STARLINK-37099

NORAD 68301 · 2026-057H

PAYLOAD ACTIVE UNKNOWN

§ Identity

Operator
Country
US
Launch date
2026-03-20
Launch site
AFWTR
Launch vehicle
Mass (kg)
RCS (m²)

Purposes: comms

External: N2YO · Heavens-Above · Gunter

§ Orbital elements

Epoch: 2026-09-19T14:29:07.434528Z

Period
93.91 min
Inclination
97.2837°
Eccentricity
0.0001467
Mean motion
15.33450405 rev/d
Perigee alt
464.5 km
Apogee alt
466.5 km
Semi-major
6,843.7 km
B*
6.3663e-4
RAAN
27.9768°
Arg perigee
97.4283°
Mean anomaly
262.7126°
Rev number
2,837

§ Raw data

STARLINK-370991 68301U 26057H   26262.60355827  .00020537  00000+0  63663-3 0  99952 68301  97.2837  27.9768 0001467  97.4283 262.7126 15.33450405 28372

JSON: /api/v1/satellites/68301 · /tle

For live sub-satellite position, see the globe view (requires WebGL).

§ Visibility from observer

Set your observer location to see the next 7 days of passes ≥ 10°. The values pass through the URL so the page stays shareable.

No JS? Fill the form by hand. The geolocation button needs JavaScript.